Tracking 19717 objects as of 25-Jun-2019
HD Live streaming from Space Station
objects crossing your sky now

SL-8 R/B

Track SL-8 R/B now!
10-day predictions


NORAD ID: 9848
Int'l Code: 1977-013B
Perigee: 974.8 km
Apogee: 998.9 km
Inclination: 82.9 °
Period: 104.7 minutes
Semi major axis: 7357 km
RCS: 4.757 m2 (large)
Launch date: February 21, 1977
Source: Commonwealth of Independent States (former USSR) (CIS)
Launch site: PLESETSK MISSILE AND SPACE COMPLEX (PKMTR)

Note: This is a ROCKET BODY
aabbcc
Your satellite tracking list
Your tracking list is empty




NASA's NSSDC Master Catalog

Two Line Element Set (TLE):
1  9848U 77013B   19175.46730528 +.00000118 +00000-0 +10693-3 0  9997
2  9848 082.9492 160.1509 0016392 351.5449 122.2215 13.75553369124402
Source of the keplerian elements: AFSPC